Wind_Speed
7 8 9 9 9 10 11 10 10 12 13 13 12 13 14 13 12 12 11 10 11 11 11 11 10 10 10 10 9 9 8 8 8 8 8 7 8 8 8 8 8 8 8
8 9 9 8 8 9 10 10 11 12 12 12 12 13 13 13 12 12 11 11 11 11 11 10 10 10 10 9 9 9 8 8 8 8 7 7 7 8 8 8 8 8 8
8 8 9 8 9 9 9 11 12 12 12 12 12 13 13 12 11 11 12 12 11 10 10 10 10 10 10 9 8 8 8 7 7 7 7 7 7 8 8 7 8 7 7
7 7 8 8 9 10 11 12 13 12 12 12 12 12 12 12 12 12 12 12 11 10 10 10 9 9 8 8 8 8 7 7 7 7 6 6 7 7 7 7 7 6 6
7 7 9 9 10 10 11 12 12 12 12 12 12 12 12 13 12 12 11 11 10 10 9 9 9 8 7 7 7 7 6 6 6 6 6 6 6 6 6 6 6 6 6
7 7 8 8 8 10 11 12 12 11 12 12 12 13 12 12 12 11 10 10 9 9 8 8 8 8 7 7 6 6 6 5 5 5 5 5 5 5 5 5 5 5 5
8 8 8 8 8 9 10 11 11 11 11 10 11 11 11 11 11 10 9 9 9 8 8 8 7 7 6 6 5 5 5 5 5 5 5 5 5 4 4 4 3 4 4
8 8 7 7 7 9 10 10 10 10 11 11 11 11 11 11 10 9 8 8 8 8 7 7 6 5 5 5 4 4 4 4 4 4 4 4 4 3 3 3 2 2 3
9 8 8 7 8 9 10 9 10 10 11 11 10 10 11 10 10 8 8 8 7 7 7 6 5 5 4 4 3 3 4 4 4 3 3 3 3 3 2 2 2 2 2
9 8 8 7 8 9 9 9 10 10 10 10 10 10 10 10 9 8 7 7 6 6 6 5 5 4 4 4 3 3 3 3 3 3 2 3 3 3 3 3 3 3 3
8 8 7 8 8 8 8 8 9 10 10 10 10 10 9 9 8 7 6 6 5 5 5 5 4 4 4 3 3 2 2 3 3 3 2 2 3 3 4 4 4 4 4
8 7 7 6 7 7 7 7 8 8 9 10 10 9 8 7 7 7 6 6 5 5 4 4 3 3 3 3 3 2 2 3 3 3 3 3 3 4 4 5 5 5 6
7 6 6 7 7 7 7 7 7 8 8 8 8 8 7 6 6 6 6 5 5 4 4 4 4 3 3 3 3 2 2 2 3 3 4 4 4 4 5 5 6 6 6
8 7 7 7 7 7 7 7 7 7 7 8 7 7 6 6 6 5 5 4 4 4 4 4 4 4 3 3 3 3 3 3 3 3 3 4 4 5 5 5 6 7 7
7 7 6 7 6 7 7 6 6 6 7 7 7 7 6 5 5 5 4 4 3 4 4 4 4 4 4 3 3 3 3 4 4 4 4 4 5 5 6 6 6 6 7
6 6 6 6 6 6 6 6 6 6 6 6 6 6 6 5 5 4 4 3 3 3 4 4 4 4 4 4 4 4 4 5 5 6 6 6 6 6 7 7 7 8 8
6 5 4 5 6 6 6 6 6 6 6 5 5 5 5 5 5 5 4 3 2 2 3 4 4 4 5 5 5 5 5 5 5 6 6 6 6 7 7 8 8 8 9
6 5 4 4 5 6 6 6 7 6 6 5 5 4 4 3 4 4 4 3 2 2 3 3 4 5 5 5 6 6 6 6 6 6 6 6 7 7 8 8 8 9 9
5 4 4 4 5 5 5 6 6 6 6 5 4 4 3 3 3 3 3 2 2 2 2 4 4 5 5 5 6 7 7 7 7 7 7 7 8 8 8 8 9 9 10
4 4 4 4 4 5 5 5 5 5 5 4 4 3 2 1 2 2 1 2 2 3 3 3 4 4 4 5 6 6 7 7 8 9 9 9 9 9 9 9 10 10 11
2 3 3 4 4 4 4 4 4 4 4 3 2 1 1 0 0 1 2 2 3 4 3 4 4 4 5 5 6 6 7 7 8 9 9 9 10 10 10 10 11 11 11
0 1 2 3 3 3 3 2 3 3 2 2 1 0 0 1 1 2 3 4 4 5 5 5 5 5 6 6 7 7 8 8 7 8 9 10 11 11 11 12 11 11 11
2 1 1 1 2 2 2 1 1 1 1 0 0 1 1 1 2 4 5 5 5 6 6 6 6 6 7 7 7 8 8 9 9 9 9 10 11 11 12 12 12 11 11
4 4 3 2 2 2 2 1 2 2 2 2 2 2 2 3 4 5 6 6 6 7 7 8 8 8 8 8 8 9 9 10 10 10 10 10 10 10 11 12 12 12 12
7 6 6 5 4 4 4 4 4 4 4 4 4 4 4 4 5 6 7 7 8 9 9 9 10 9 9 9 9 9 10 10 11 11 11 11 12 12 12 13 13 14 14
10 9 8 8 7 7 7 6 6 7 7 7 7 7 7 7 7 7 8 8 9 10 10 10 10 9 9 9 9 10 10 11 12 12 12 12 13 13 14 14 14 14 14
Wind_Direction
124 127 135 135 138 141 140 137 135 135 137 136 134 132 131 129 127 125 123 123 121 119 120 120 117 117 118 116 115 113 115 119 118 114 110 106 107 113 119 116 110 105 101
127 133 135 132 131 138 141 141 136 137 135 135 138 135 133 131 129 127 120 120 120 118 117 118 119 118 114 112 113 114 116 119 120 117 114 111 110 115 120 117 111 108 103
127 137 138 136 136 137 139 141 138 135 136 135 136 136 136 135 135 131 125 120 120 117 116 117 120 118 114 111 114 116 116 116 116 115 112 113 114 118 120 116 114 110 106
125 130 137 140 144 139 140 141 139 135 135 137 137 138 135 134 134 132 125 123 123 121 121 120 121 120 117 114 114 118 120 119 119 118 114 113 116 118 123 120 117 115 112
121 128 135 140 141 138 139 142 142 137 139 140 140 139 137 135 132 129 128 128 127 125 123 121 121 122 121 120 121 122 125 126 126 127 123 120 119 122 130 128 125 125 121
120 130 138 142 137 137 141 142 141 140 141 141 138 137 138 135 132 131 132 132 130 128 125 123 122 120 119 122 124 127 129 130 133 134 132 126 123 123 133 137 132 134 131
120 125 130 138 137 140 143 144 145 145 143 145 142 143 141 135 132 132 133 135 133 132 130 127 128 125 117 118 120 123 125 135 136 141 141 136 134 132 136 140 137 138 137
114 121 126 132 139 144 148 147 146 149 147 146 146 145 144 141 137 134 134 137 135 135 136 136 134 131 125 120 125 130 127 137 142 142 152 150 151 149 149 153 143 144 147
111 120 126 133 142 147 148 148 148 149 149 148 145 143 143 142 139 138 138 139 140 142 142 142 141 141 142 142 140 145 141 143 147 153 163 167 171 179 181 185 196 205 193
108 118 124 131 144 148 148 147 149 149 150 150 147 145 147 148 147 147 146 147 148 148 149 149 148 149 152 151 151 156 162 169 171 172 182 195 200 204 217 226 222 231 233
108 116 125 132 136 140 145 149 149 152 154 153 152 150 150 153 155 157 156 155 157 161 160 159 157 162 167 162 164 176 187 193 200 198 206 213 214 219 231 239 241 243 246
103 113 124 128 133 138 142 145 147 152 157 159 159 158 155 158 163 165 165 163 165 169 171 169 171 170 172 172 179 190 195 209 212 222 224 229 227 228 238 245 246 253 256
90 98 114 130 129 133 141 147 149 153 160 163 163 164 161 161 166 171 168 167 173 178 180 177 180 179 173 172 183 197 209 214 220 226 234 242 241 240 249 252 258 264 263
85 92 105 114 124 128 134 143 150 154 163 166 167 169 167 168 171 179 177 175 183 190 191 192 196 198 195 190 195 206 216 218 216 222 236 243 246 249 254 262 268 272 270
84 93 99 110 120 122 128 139 146 153 157 160 163 168 170 171 175 184 179 184 186 194 196 197 206 214 217 211 210 221 228 229 233 236 240 245 251 259 261 265 273 277 274
82 89 99 111 121 122 125 137 139 145 149 151 157 168 173 176 178 178 180 183 194 204 213 217 222 228 235 234 241 248 248 245 239 242 246 250 255 260 267 269 272 276 275
75 80 88 109 122 120 119 132 138 141 148 149 156 162 168 173 169 172 179 185 203 229 233 238 238 246 248 243 251 260 263 259 253 251 255 255 261 266 271 275 274 277 277
70 78 88 87 114 113 116 126 136 136 141 144 141 135 145 163 166 175 192 211 244 267 258 256 256 258 259 256 256 257 258 260 261 261 266 264 267 270 275 279 277 279 281
64 71 83 86 97 104 111 118 124 132 134 137 139 131 131 148 168 183 211 235 277 293 286 275 277 264 262 265 262 258 258 257 263 266 271 276 275 275 277 279 280 281 283
62 69 77 86 93 105 114 118 117 120 126 133 135 144 137 151 177 191 224 253 284 309 302 288 284 278 271 274 274 270 266 268 266 265 270 274 273 276 277 281 283 283 285
56 69 82 99 98 104 114 121 124 124 122 123 125 123 102 85 210 241 277 300 295 300 294 291 293 287 279 279 280 279 277 279 275 269 270 272 273 276 278 281 281 281 284
270 102 95 116 117 114 114 119 125 127 126 122 109 93 5 337 317 301 284 284 294 294 298 301 298 294 289 289 287 282 280 281 282 277 276 275 276 278 280 280 280 282 282
247 208 169 169 156 140 131 119 139 152 158 157 312 294 288 299 315 319 314 303 296 297 297 302 302 296 288 288 287 285 286 287 287 285 281 280 279 279 281 281 280 281 280
257 245 240 231 225 216 219 241 264 263 269 284 294 294 296 296 298 304 310 304 299 299 301 301 302 297 290 286 287 289 289 289 290 290 286 286 285 284 284 283 281 282 283
259 254 249 243 245 245 246 255 267 273 278 286 287 283 285 290 296 299 301 299 294 295 297 299 299 296 290 284 287 289 288 287 287 288 287 285 283 282 282 281 280 281 282
257 255 253 253 255 254 255 262 269 270 274 280 284 283 285 289 294 296 296 296 295 295 296 299 298 294 293 289 285 284 283 283 287 288 288 287 286 284 283 281 279 278 277
Height
5881 5880 5880 5880 5881 5882 5883 5884 5884 5885 5886 5887 5889 5890 5891 5892 5893 5894 5895 5896 5896 5897 5898 5899 5899 5900 5900 5901 5902 5902 5902 5903 5903 5903 5903 5903 5903 5904 5904 5904 5904 5905 5905
5881 5881 5881 5881 5882 5883 5884 5884 5885 5886 5887 5889 5890 5891 5892 5893 5894 5895 5896 5897 5898 5899 5900 5900 5901 5901 5902 5902 5903 5903 5904 5904 5904 5904 5904 5904 5905 5905 5906 5906 5906 5906 5906
5882 5882 5882 5882 5884 5884 5885 5886 5887 5887 5889 5890 5891 5892 5893 5894 5895 5896 5897 5898 5900 5900 5901 5902 5902 5903 5903 5904 5904 5905 5905 5905 5906 5906 5906 5906 5906 5906 5907 5907 5907 5908 5908
5883 5883 5883 5883 5884 5885 5886 5887 5888 5889 5890 5891 5892 5893 5894 5895 5896 5898 5899 5900 5901 5902 5902 5903 5904 5904 5904 5905 5905 5906 5906 5907 5907 5907 5907 5907 5907 5908 5908 5909 5909 5909 5909
5884 5884 5884 5884 5885 5887 5887 5888 5889 5891 5892 5893 5893 5895 5896 5896 5898 5899 5900 5901 5902 5903 5903 5904 5904 5905 5905 5906 5906 5907 5907 5908 5908 5908 5908 5909 5909 5909 5909 5910 5910 5910 5910
5885 5885 5885 5886 5887 5888 5889 5889 5890 5892 5893 5894 5895 5896 5897 5898 5899 5900 5901 5902 5903 5904 5904 5905 5905 5906 5906 5907 5907 5908 5908 5908 5909 5909 5909 5910 5910 5910 5911 5911 5911 5911 5911
5886 5886 5887 5887 5888 5889 5890 5891 5892 5893 5894 5895 5896 5897 5898 5899 5900 5901 5902 5903 5903 5904 5905 5906 5906 5907 5907 5907 5908 5908 5909 5909 5909 5910 5910 5911 5911 5911 5911 5912 5912 5912 5912
5887 5888 5888 5888 5889 5890 5891 5892 5893 5894 5895 5896 5897 5897 5899 5900 5901 5902 5903 5903 5904 5905 5906 5906 5907 5907 5908 5908 5908 5909 5909 5910 5910 5910 5911 5911 5912 5912 5912 5912 5912 5912 5913
5889 5889 5889 5889 5890 5891 5892 5893 5894 5895 5896 5897 5898 5898 5900 5901 5902 5903 5904 5904 5905 5906 5906 5907 5907 5908 5908 5909 5909 5909 5910 5910 5910 5911 5911 5911 5912 5912 5912 5913 5913 5913 5913
5890 5890 5890 5891 5891 5892 5893 5894 5895 5896 5897 5898 5899 5900 5901 5902 5902 5903 5904 5905 5905 5906 5907 5907 5908 5908 5909 5909 5909 5909 5910 5910 5910 5911 5911 5911 5912 5912 5912 5912 5912 5912 5913
5891 5892 5892 5892 5892 5893 5894 5894 5895 5896 5898 5899 5900 5901 5902 5902 5903 5904 5905 5905 5906 5906 5907 5907 5908 5908 5908 5909 5909 5909 5910 5910 5910 5911 5911 5911 5912 5912 5912 5912 5912 5912 5912
5893 5893 5893 5893 5894 5894 5895 5895 5896 5897 5898 5899 5900 5901 5902 5903 5903 5904 5905 5905 5906 5906 5907 5907 5908 5908 5908 5908 5909 5909 5909 5910 5910 5910 5911 5911 5911 5911 5911 5912 5912 5911 5911
5894 5894 5894 5894 5895 5895 5896 5896 5897 5898 5899 5900 5901 5902 5902 5903 5904 5905 5905 5906 5906 5906 5907 5907 5908 5908 5908 5908 5909 5909 5909 5909 5909 5910 5910 5910 5911 5911 5911 5911 5911 5911 5910
5896 5896 5896 5896 5896 5897 5897 5897 5898 5899 5899 5900 5901 5902 5903 5904 5904 5905 5905 5905 5906 5906 5907 5907 5907 5908 5908 5908 5909 5909 5909 5909 5909 5909 5909 5910 5910 5910 5910 5910 5910 5910 5909
5898 5897 5897 5897 5897 5898 5898 5898 5899 5899 5900 5901 5901 5902 5903 5904 5904 5905 5905 5906 5906 5906 5906 5907 5907 5907 5907 5908 5908 5908 5908 5908 5908 5909 5909 5909 5909 5909 5909 5909 5908 5908 5908
5899 5899 5899 5898 5899 5899 5899 5899 5900 5900 5900 5901 5902 5902 5903 5904 5905 5905 5906 5906 5906 5906 5906 5906 5906 5907 5907 5907 5907 5907 5907 5907 5907 5908 5908 5908 5908 5908 5908 5907 5907 5907 5906
5901 5900 5900 5900 5900 5900 5900 5900 5900 5901 5901 5902 5902 5903 5903 5904 5905 5905 5905 5906 5906 5905 5905 5905 5906 5906 5906 5906 5906 5906 5906 5906 5906 5906 5906 5906 5906 5906 5906 5906 5906 5905 5904
5902 5902 5901 5901 5901 5901 5901 5901 5901 5901 5902 5902 5903 5903 5904 5904 5904 5905 5905 5905 5905 5905 5904 5905 5905 5905 5905 5905 5905 5905 5905 5905 5905 5905 5905 5905 5905 5905 5905 5904 5904 5903 5903
5904 5903 5903 5903 5902 5902 5902 5902 5902 5902 5903 5903 5903 5904 5904 5904 5905 5905 5905 5905 5905 5904 5904 5904 5904 5904 5904 5904 5904 5904 5904 5904 5904 5904 5904 5904 5903 5903 5903 5902 5902 5902 5901
5905 5904 5904 5904 5903 5903 5903 5903 5903 5903 5903 5904 5904 5904 5904 5904 5905 5905 5905 5904 5904 5904 5903 5903 5903 5903 5903 5903 5902 5902 5902 5903 5903 5902 5902 5902 5902 5901 5901 5901 5900 5900 5899
5906 5905 5904 5904 5904 5904 5904 5903 5904 5904 5904 5904 5904 5904 5904 5904 5904 5904 5904 5904 5904 5904 5903 5903 5902 5902 5902 5902 5901 5901 5901 5901 5901 5900 5900 5900 5900 5900 5899 5899 5898 5898 5897
5906 5905 5905 5905 5904 5904 5904 5904 5904 5904 5904 5904 5904 5904 5904 5904 5904 5904 5904 5903 5903 5903 5902 5902 5901 5901 5901 5900 5900 5900 5900 5900 5899 5899 5898 5898 5898 5897 5897 5897 5896 5895 5895
5906 5906 5905 5905 5905 5904 5904 5904 5904 5904 5904 5904 5904 5903 5903 5903 5903 5903 5903 5902 5902 5902 5901 5901 5900 5900 5899 5899 5899 5898 5898 5898 5897 5897 5896 5896 5895 5895 5895 5894 5894 5893 5893
5906 5906 5905 5905 5905 5904 5904 5904 5904 5904 5904 5904 5903 5903 5903 5903 5902 5902 5902 5901 5901 5900 5900 5899 5899 5898 5898 5897 5897 5896 5896 5896 5895 5894 5894 5893 5893 5892 5892 5892 5891 5891 5890
5905 5904 5904 5904 5904 5903 5903 5903 5903 5903 5903 5903 5902 5902 5902 5902 5901 5901 5900 5900 5899 5898 5898 5897 5897 5896 5896 5895 5895 5894 5893 5893 5892 5892 5892 5891 5890 5890 5889 5889 5888 5887 5887
5903 5903 5902 5902 5902 5902 5902 5902 5902 5902 5902 5901 5901 5900 5900 5900 5900 5899 5899 5898 5897 5896 5896 5895 5894 5894 5893 5892 5892 5891 5891 5891 5890 5890 5889 5888 5887 5887 5886 5885 5885 5884 5883